Location: �perlecques
(50.8057°N, 2.1521°E)
Time: 11:55:30
(UTC+00:00)

ISS - Visible Passes

Search period start: 09 December 2023 00:00
Search period end: 19 December 2023 00:00
Orbit: 415 x 417 km, 51.6° (Epoch: 09 December)

Date Brightness Start Highest point End Pass type
(mag) Time Alt. Az. Time Alt. Az. Time Alt. Az.
16 Dec -0.7 06:43:22 10° S 06:45:47 19° SE 06:48:13 10° E visible
17 Dec -0.6 05:55:27 10° SSE 05:56:58 13° SE 05:58:29 10° ESE visible
18 Dec -2.1 06:40:58 10° SW 06:44:04 36° SSE 06:47:10 10° E visible
